Regional Weather Roundup
Issued by NWS Huntsville, AL

Home | Current Version | Previous Version | Text Only | Print | Product List | Glossary On
Versions: 1 2 3 4 5 6 7 8 9 10 11 12 13 14 15 16 17 18 19 20 21 22 23 24 25 26
000
ASUS44 KHUN 172210
RWRHUN

WEATHER ROUNDUP FOR THE TENNESSEE VALLEY
NATIONAL WEATHER SERVICE HUNTSVILLE AL
400 PM CST SAT FEB 17 2018

ALZ001>004-172300-
NORTHWEST ALABAMA

CITY           SKY/WX    TMP DP  RH WIND       PRES   REMARKS
SHOALS AIRPORT RAIN      48  45  89 W3        30.12R FOG
$$

ALZ005>007-016-172300-
NORTH CENTRAL ALABAMA

CITY           SKY/WX    TMP DP  RH WIND       PRES   REMARKS
DECATUR AP     LGT RAIN  49  48  97 W6        30.11R
HUNTSVILLE AP  LGT RAIN  49  49 100 NW6       30.10R FOG
MERIDIANVILLE  LGT RAIN  47  45  95 CALM      30.09R FOG
REDSTONE ARSN  LGT RAIN  48  48 100 NE3       30.08R VSB 3/4
VINEMONT AP    DRIZZLE   58  57  94 W14G21    30.11R
$$

ALZ008>010-172300-
NORTHEAST ALABAMA

CITY           SKY/WX    TMP DP  RH WIND       PRES   REMARKS
FORT PAYNE     CLOUDY    64  54  68 CALM      30.03S
SCOTTSBORO AP  LGT RAIN  61  61 100 W7G16     30.06R
$$

TNZ076-096-097-172300-
SOUTHEASTERN MIDDLE TENNESSEE

CITY           SKY/WX    TMP DP  RH WIND       PRES   REMARKS
TULLAHOMA      PTSUNNY   45  45 100 SE6       30.06F
WINCHESTER     CLOUDY    45  45 100 W3        30.10R
$$

...SURROUNDING SITES...

CITY           SKY/WX    TMP DP  RH WIND       PRES   REMARKS
ATLANTA        PTSUNNY   75  53  46 W20G26    30.07S
ANNISTON       PTSUNNY   72  58  61 SW13      30.06F
BIRMINGHAM     CLOUDY    72  58  61 SW10      30.08F
CHATTANOOGA    LGT RAIN  63  56  78 SW13      30.03R
CORINTH        CLOUDY    46  45  93 W3        30.11R
DALTON         CLOUDY    68  57  68 SW5       30.04F
GADSDEN        CLOUDY    71  59  65 SW10      30.05F
GOLDEN TRNGL   LGT RAIN  55  52  89 NW14G21   30.11R
HALEYVILLE     LGT RAIN  50  50 100 W6        30.12S FOG
JACKSON TN     CLOUDY    48  45  89 W10       30.12R
MEMPHIS        CLOUDY    49  45  86 W8        30.12S
NASHVILLE      CLOUDY    47  44  90 SW6       30.08R
OXFORD MS      DRIZZLE   46  46 100 VRB5      30.15R
ROME           CLOUDY    72  59  63 W12G17    30.02S
SAVANNAH       CLOUDY    46  45  93 SW7       30.11R
SELMER         PTSUNNY   46  45  93 VRB6      30.10R
TUPELO         LGT RAIN  50  47  89 SW5       30.12
TUSCALOOSA     CLOUDY    76  61  59 W8        30.06R
$$

...GULF COAST WEATHER...

CITY           SKY/WX    TMP DP  RH WIND       PRES   REMARKS
GULFPORT       FAIR      75  68  78 S7        30.11S
PASCAGOULA     FAIR      75  65  70 S6        30.13R
MOBILE         FAIR      78  62  57 SW10G20   30.12S
GULF SHORES    FAIR      75  66  73 SW8       30.13F
PENSACOLA      PTSUNNY   73  66  78 SW9       30.13
DESTIN         PTSUNNY   76  68  76 SW5       30.15R
PANAMA CITY    FAIR      76  66  72 SW9       30.16S
APPALACHICOLA  CLOUDY    72  71  97 W8        30.17R
$$





USA.gov is the U.S. government's official web portal to all federal, state and local government web resources and services.